Regional Weather Roundup
Issued by NWS

Home | Current Version | Previous Version | Text Only | Print | Product List | Glossary On
Versions: 1 2 3 4 5 6 7 8 9 10 11 12 13 14 15 16 17 18 19 20 21 22 23 24 25 26 27 28 29 30 31 32 33 34 35 36 37 38 39 40 41 42 43 44 45 46 47 48 49 50
000
ASUS43 KDMX 291203
RWRIA

WEATHER ROUNDUP FOR IOWA
NATIONAL WEATHER SERVICE DES MOINES IA
700 AM CDT THU SEP 29 2016

NOTE: "FAIR" INDICATES FEW OR NO CLOUDS BELOW 12,000 FEET WITH NO
SIGNIFICANT WEATHER AND/OR OBSTRUCTIONS TO VISIBILITY.

* - THESE STATIONS ARE NOT NWS STATIONS...THUS NOT UNDER NWS
QUALITY CONTROL.  THEY ALSO DO NOT REPORT WEATHER SUCH
AS PRECIPITATION OR FOG.

IAZ001>003-012>014-020>022-031>034-043>046-291300-
   NORTHWEST IOWA

CITY           SKY/WX    TMP DP  RH WIND       PRES   REMARKS
CARROLL *      CLEAR     46  46 100 N7        30.39S
CHEROKEE *     CLEAR     42  42 100 CALM      30.43R
DENISON *      CLEAR     45  45 100 CALM      30.39R FOG
LE MARS *      CLOUDY    41  41 100 NE5       30.44R
ORANGE CITY *  CLEAR     43  41  93 CALM      30.43R
SHELDON *      CLOUDY    39  39 100 CALM      30.42R FOG
SIOUX CITY     CLOUDY    42  41  96 NW5       30.43R
6HR MIN TEMP:  42; 6HR MAX TEMP:  49;

SPENCER        CLEAR     43  43 100 CALM      30.42R
6HR MIN TEMP:  39; 6HR MAX TEMP:  50;

STORM LAKE *   CLEAR     48  46  93 NE10      30.41R
$$

IAZ055>058-069>071-079>083-090>094-291300-
   SOUTHWEST IOWA

CITY           SKY/WX    TMP DP  RH WIND       PRES   REMARKS
ATLANTIC *     CLEAR     45  45 100 N3        30.39R
AUDUBON *      CLEAR     46  45  93 CALM      30.40R
CLARINDA *       N/A     46  46 100 MISG      30.39R
COUNCIL BLFS * CLEAR     45  45 100 N6        30.40R
CRESTON *      CLEAR     48  48 100 N12       30.37S
HARLAN  *      CLEAR     45  45 100 CALM      30.43R
LAMONI         CLEAR     49  48  97 N10       30.34R
6HR MIN TEMP:  48; 6HR MAX TEMP:  52;

RED OAK *      CLEAR     46  45  93 N3        30.39R
SHENANDOAH *   CLEAR     45  43  93 CALM      30.39R
$$

IAZ047>049-059>061-072>074-084-291300-
   CENTRAL IOWA

CITY           SKY/WX    TMP DP  RH WIND       PRES   REMARKS
AMES           CLEAR     48  48 100 N8        30.37R
6HR MIN TEMP:  47; 6HR MAX TEMP:  52;

ANKENY *         N/A    N/A N/A N/A MISG        N/A
BOONE *        CLEAR     45  45 100 N7        30.37R
CHARITON *       N/A     48  48 100 N8        30.34R
DES MOINES     PTCLDY    52  49  89 N8        30.36R
6HR MIN TEMP:  52; 6HR MAX TEMP:  55;

GRINNELL*      CLEAR     49  48  96 N6        30.34R
KNOXVILLE *    CLEAR     52  48  87 N9        30.33R
MARSHALLTOWN   CLEAR     49  49 100 N9        30.35R
6HR MIN TEMP:  49; 6HR MAX TEMP:  53;

NEWTON *       CLEAR     48  48 100 N9        30.34R
PELLA *        CLEAR     48  47  97 NW6       30.34S
PERRY *          N/A     47  47 100 N6        30.38R
$$

IAZ004>006-015-016-023>025-035-036-291300-
   NORTH CENTRAL IOWA

CITY           SKY/WX    TMP DP  RH WIND       PRES   REMARKS
ALGONA *       MOCLDY    45  45 100 N5        30.41R
CLARION *      FOG       48  48 100 NE7       30.39R VSB 1/4
ESTHERVILLE    CLEAR     43  43 100 N6        30.42R
6HR MIN TEMP:  43; 6HR MAX TEMP:  45;

FORT DODGE *   CLEAR     45  41  87 NW3       30.40R
MASON CITY     CLOUDY    52  50  93 NE7       30.41R
6HR MIN TEMP:  44; 6HR MAX TEMP:  52;

FOREST CITY *  CLOUDY    50  50 100 NE7       30.41R FOG
WEBSTER CITY * PTCLDY    45  45 100 N7        30.37R
IOWA FALLS *     N/A     50  49  95 N6        30.38R
$$

IAZ007>011-017>019-026>030-037>042-050>054-066-291300-
   NORTHEAST IOWA

CITY           SKY/WX    TMP DP  RH WIND       PRES   REMARKS
CEDAR RAPIDS   CLEAR     51  51 100 N12       30.29S
6HR MIN TEMP:  50; 6HR MAX TEMP:  52;

CHARLES CITY * CLEAR     48  48 100 N7        30.38R
CLINTON *      CLEAR     52  50  93 N10       30.24R
DECORAH *      CLEAR     50  50 100 N7        30.36R
DUBUQUE        PTCLDY    50  49  96 N14       30.29R
6HR MIN TEMP:  50; 6HR MAX TEMP:  51;

MONTICELLO *   PTCLDY    50  48  93 N8        30.30R
OELWEIN *      CLEAR     50  48  93 N8        30.35R
WATERLOO       CLEAR     48  47  96 N8        30.34S
6HR MIN TEMP:  48; 6HR MAX TEMP:  52;

$$

IAZ064-065-067-068-078-291300-
   EAST CENTRAL IOWA

CITY           SKY/WX    TMP DP  RH WIND       PRES   REMARKS
DAVENPORT      CLOUDY    52  50  93 N14       30.25R
6HR MIN TEMP:  50; 6HR MAX TEMP:  53;

IOWA CITY      CLEAR     53  49  86 N13       30.30R
6HR MIN TEMP:  53; 6HR MAX TEMP:  55;

MUSCATINE *    CLEAR     54  50  87 N9        30.26R
QUAD CITIES    CLOUDY    55  50  83 N9        30.23R
6HR MIN TEMP:  54; 6HR MAX TEMP:  56;

$$

IAZ062-063-075>077-085>089-095>099-291300-
   SOUTHEAST IOWA

CITY           SKY/WX    TMP DP  RH WIND       PRES   REMARKS
BURLINGTON     CLEAR     51  50  96 N10       30.23R
6HR MIN TEMP:  51; 6HR MAX TEMP:  53;

FAIRFIELD *    CLEAR     50  46  87 N9        30.28S
FORT MADISON * CLEAR     50  48  93 NW6       30.25R
KEOKUK *       CLEAR     50  48  93 NW7       30.23S
OSKALOOSA *      N/A     47  47  97 N8        30.32R
OTTUMWA        CLEAR     47  45  93 NW9       30.31R
6HR MIN TEMP:  47; 6HR MAX TEMP:  52;

WASHINGTON *     N/A    N/A N/A N/A MISG        N/A
$$

ABBREVIATIONS USED IN REMARKS
   TC - TEMPERATURES IN CELSIUS
  WCI - WIND CHILL INDEX
   HX - HEAT INDEX
  VSB - VISIBILITY
$$





USA.gov is the U.S. government's official web portal to all federal, state and local government web resources and services.